map of DBV home
DBV - Airport
Location
City:  Dubrovnik, Sisak-Moslavina, Croatia
ICAO:LDDU
IATA:DBV

Details
Type:Airport (Aerodrome, Airfield)
Use:Public/Civil, International (customs port of entry)
Latitude:4233'41"N (42.561353)
Longitude:1816'06"E (18.268244)
Datum:WGS 1984
Elevation:527 ft (161 m)
Variation:4.37E (WMM2015v2 magnetic declination)
0.13 annual change
Runways:1
Longest:10827 × 148 ft (3300 × 45 m), paved

Time
Time Zone:UTC+1 (DST+2)
Local Time:

Weather
METAR:LDDU 041400Z 02017KT 350V060 9999 FEW045 14/05 Q1016 TEMPO 02020G30KT
TAF:LDDU 041125Z 0412/0512 02020KT 9999 SCT035 TX15/0511Z TN10/0506Z
TEMPO 0412/0506 02020G32KT
BECMG 0508/0510 10005KT

Related Locations
Nearby:
Farthest:CHT: 11693 mi / 18818 km
Waitangi [Tuuta], CIT, NZ

Find:

   beyond  
but within

Other Information
Maps:
NOTAMs:
Links:
Sources:

  
  • flag of Croatia
  • flag of Sisak-Moslavina
  

Sectional Chart

Flight Planning
at skyvector.com

Satellite Image

Google Maps Satellite view

 

Copyright © 2004-2019 Karl L. Swartz. All rights reserved.
The Great Circle Mapper name and logo are trademarks of the Great Circle Mapper.
All other trademarks mentioned herein belong to their respective owners.
Please see credits for attibutions and further copyright information.

  Follow gcmap on Facebook Follow gcmap on Twitter GCmap on LinkedIn

hCard Microformat

Geo Microformat